Regional Weather Roundup
Issued by NWS New Orleans/Baton Rouge, LA

Home | Current Version | Previous Version | Text Only | Print | Product List | Glossary On
Versions: 1 2 3 4 5 6 7 8 9 10 11 12 13 14 15 16 17 18 19 20 21 22 23 24 25 26 27 28 29 30 31 32 33 34 35 36 37 38 39 40 41 42 43 44 45 46 47 48 49 50
607
ASUS44 KLIX 010311
RWRLIX
NEW ORLEANS REGIONAL WEATHER ROUNDUP
NATIONAL WEATHER SERVICE NEW ORLEANS LA
1000 PM CDT TUE MAR 31 2015

NOTE: "FAIR" INDICATES FEW OR NO CLOUDS BELOW 12,000 FEET WITH NO
      SIGNIFICANT WEATHER AND/OR OBSTRUCTIONS TO VISIBILITY.
      SKY/WX - SKY CONDITION AND SIGNIFICANT WEATHER.
      TMP - AIR TEMPERATURE.     DP    - DEWPOINT TEMPERATURE.
      RH  - RELATIVE HUMIDITY.   PRES  - PRESSURE.
      HI  - HEAT INDEX.          WCI   - WIND CHILL INDEX.

*  THESE STATIONS ARE NOT NWS OR FAA STATIONS AND ARE NOT UNDER
   NWS QUALITY CONTROL.

LAZ038-040-048-061>063-065>067-069-010400-
SOUTHEAST LOUISIANA

CITY           SKY/WX    TMP DP  RH WIND       PRES   REMARKS
N.O. AUDUBON     N/A     67  66  98 MISG        N/A
N.O. INTL ARPT CLEAR     69  61  75 SW9       30.07R
N.O. LAKEFRONT CLEAR     73  62  68 SW10      30.07R
SLIDELL        CLEAR     72  62  71 SW6       30.06R
BATON ROUGE    PTCLDY    68  59  73 SW9       30.05R
BOOTHVILLE     CLEAR     73  67  81 SW9       30.09R
BELLE CHASSE   PTCLDY    64  61  90 SW3       30.07R
BOGALUSA*        N/A     71  59  67 SW6       30.06R
GALLIANO*      CLEAR     70  65  82 CALM      30.08S
NEW ROADS*       N/A     68  56  66 S5        30.04S
GONZALES*        N/A     67  63  88 CALM      30.05S
HAMMOND*       CLEAR     70  59  68 SW3       30.08R
HOUMA*         CLEAR     63  62  97 CALM      30.07S FOG
PORT FOURCHON* CLEAR     73  66  78 SW7       30.11S

$$

MSZ070-080>082-010400-
SOUTHERN MISSISSIPPI

CITY           SKY/WX    TMP DP  RH WIND       PRES   REMARKS
MCCOMB         CLEAR     68  60  75 S5        30.05R
GULFPORT       CLEAR     72  62  71 W3        30.05R
BILOXI         CLEAR     71  67  88 SW10      30.05R
PASCAGOULA     PTCLDY    71  66  84 SW6       30.06R

$$

COASTAL OBSERVATIONS
LAKE AND NEARSHORE STATIONS

STATION/POSITION TIME  TEMP    WIND        PRES    WAVE
                       AIR SEA DIR/SP/G            HT/PER
                 (UTC) (F)     (DEG/KT/KT) (MB)    (FT/S)
PASCAGOULA       0200   72     230/ 14/ 19 1017.1
WAVELAND YACHT   0200   74 70  250/  6/ 10 1017.5
GRAND ISLE       0200   73 73  250/  9/ 12 1018.2
SOUTHWEST PASS   0200   67 55  230/  9/  9 1019.2
NEW CANAL        0200   73     240/  5/  8 1018.3
SHELL BEACH      0200   72 72  240/ 10/ 12 1018.0

OFFSHORE STATIONS

STATION/POSITION TIME  TEMP    WIND        PRES    WAVE
                       AIR SEA DIR/SP/G            HT/PER
                 (UTC) (F)     (DEG/KT/KT) (MB)    (FT/S)
64 S DAUPHIN ISL 0250   72 72  230/  8/  8 1019.3    2/ 8

$$




USA.gov is the U.S. government's official web portal to all federal, state and local government web resources and services.